COSMOS 2251 DEB

Satellite information

Favourite Embed

Satellite Type and Status

DEBRISIN ORBIT

Key statistics

Satellite COSMOS 2251 DEB at a glance.

Uptime

11763

Days in orbit

Revolutions

≈ 13.7

Per day

Orbit

LEO

Low Earth Orbit

Inclination

74.1

Latest

Satellite identification and parameters

Extended collection of information and parameters for COSMOS 2251 DEB.

Object identification

Identified? True

Debris? True

Object name: COSMOS 2251 DEB

International designator: 1993-036BXF

Object number (NORAD): 47051

Object ID (CCSDS): 47051

Country: COMMONWEALTH OF INDEPENDENT STATES (CIS)

Current information (Y/N): Y

RCS size: SMALL

Orbital parameters

Period: 105.377 minutes

Inclination: 74.1032 deg

SMA: 7390.207 km

Apoapsis: 1265.719 km

Periapsis: 758.424 km

RAAN: 9.9428 deg

Eccentricy: 0.0343221

Argument of periapsis: 149.6121 deg

Mean anomaly: 231.5361 deg

Mean motion: 13.66526 rev/day

Mean motion (dot): 0.00001996 rev/day2

B* drag term: 0.0016188 1/REarth

Two-line elements (TLE)

Creation date: Aug. 21, 2025, 2:23 a.m.

Reference frame: TEME

Reference center: EARTH

Epoch: Aug. 20, 2025, 3:18 p.m. UTC

TLE line 0: 0 COSMOS 2251 DEB

TLE line 1: 1 47051U 93036BXF 25232.63792181 .00001996 00000-0 16188-2 0 9990

TLE line 2: 2 47051 74.1032 9.9428 0343221 149.6121 231.5361 13.66526000583799

Live tracking on map

Real-time ground track for satellite COSMOS 2251 DEB.

In-orbit conjunctions

A list of the most updated potential collisions computed for object COSMOS 2251 DEB.

Target Orbit TCA Probability of collision Miss distance Type
THORAD AGENA D DEB SSO 2024-09-26 21:26:41 0.0008771642 21.0 (m) DEBRIS
NOAA 16 DEB SSO 2024-09-26 19:45:29 0.0002631656 236.0 (m) DEBRIS

Associated space launch

Military communications satellite. Destroyed in a collision with Iridium 33.

COSMOS 2251 DEB was lifted into orbit during the mission ‘Kosmos-3M | Strela-2M 51’, on board a Kosmos-3M space rocket.

The launch took place on June 16, 1993, 4:17 a.m. from 132/1 (132L).

For more information about the launch, click the button.

Launch to space Kosmos-3M | Strela-2M 51
Kosmos-3M | Strela-2M 51

Agency: N/A

Status: Launch Successful

Launch date: June 16, 1993, 4:17 a.m. UTC

Rocket: Kosmos-3M

Launch pad: 132/1 (132L)

Location: Plesetsk Cosmodrome, Russian Federation

...

Latest news about this satellite

There are no fresh news available about this satellite. Check back as we update our databases every day.


Newsletter sign-up

Weekly statistics, charts and insights to help you stay on top of the space industry.